This demonstration page uses our WeatherBlox Daily Observations layout. Learn more.

Left ArrowRight Arrow

Hourly Observations for January 26, 2016

Temp ( °F °C ) Dew Point ( °F °C ) Humidity (%) Winds ( mph kmh ) Pressure ( in mb ) Visibility ( mi km ) Precip ( " mm )
12:51 am 00:51 Clear 39 3.9 18 -7.8 43 43 NNW 7 11 30.08 1019 10 16 N/A
1:51 am 01:51 Clear 36 2.2 18 -7.8 48 48 E 6 9 30.09 1019 10 16 N/A
2:51 am 02:51 Clear 35 1.7 18 -7.8 50 50 S 8 13 30.10 1019 10 16 N/A
3:51 am 03:51 Clear 33 0.6 18 -7.8 54 54 NNE 3 6 30.11 1020 10 16 N/A
4:51 am 04:51 Clear 32 undefined 18 -7.8 56 56 N N/A 30.12 1020 10 16 N/A
5:51 am 05:51 Clear 31 -0.6 18 -7.8 59 59 N N/A 30.15 1021 10 16 N/A
6:51 am 06:51 Clear 28 -2.2 17 -8.3 63 63 N N/A 30.19 1022 10 16 N/A
7:51 am 07:51 Sunny 31 -0.6 18 -7.8 59 59 N 5 7 30.22 1024 10 16 N/A
8:51 am 08:51 Sunny 40 4.4 18 -7.8 41 41 N N/A 30.24 1024 10 16 N/A
9:51 am 09:51 Sunny 43 6.1 19 -7.2 38 38 SSW 3 6 30.26 1025 10 16 N/A
10:51 am 10:51 Sunny 48 8.9 15 -9.4 27 27 SW 3 6 30.25 1024 10 16 N/A
11:51 am 11:51 Sunny 53 11.7 15 -9.4 22 22 N N/A 30.23 1024 10 16 N/A
12:51 pm 12:51 Sunny 55 12.8 12 -11.1 18 18 SSE 8 13 30.19 1022 10 16 N/A
1:51 pm 13:51 Sunny 56 13.3 11 -11.7 17 17 SE 8 13 30.16 1021 10 16 N/A
2:51 pm 14:51 Sunny 58 14.4 9 -12.8 14 14 S 9 15 30.14 1021 10 16 N/A
3:51 pm 15:51 Sunny 58 14.4 8 -13.3 13 13 W 5 7 30.14 1021 10 16 N/A
4:51 pm 16:51 Sunny 57 13.9 7 -13.9 13 13 WSW 5 7 30.14 1021 10 16 N/A
5:51 pm 17:51 Clear 50 10 8 -13.3 18 18 WNW 6 9 30.16 1022 10 16 N/A
6:51 pm 18:51 Clear 46 7.8 11 -11.7 24 24 N 9 15 30.20 1023 10 16 N/A
7:51 pm 19:51 Clear 44 6.7 12 -11.1 27 27 N 8 13 30.22 1023 10 16 N/A
8:51 pm 20:51 Clear 42 5.6 13 -10.6 30 30 NNW 3 6 30.23 1024 10 16 N/A
9:51 pm 21:51 Clear 38 3.3 13 -10.6 36 36 ENE 7 11 30.24 1024 10 16 N/A
10:51 pm 22:51 Clear 35 1.7 15 -9.4 44 44 SSE 8 13 30.27 1025 10 16 N/A
11:51 pm 23:51 Clear 37 2.8 14 -10 39 39 ESE 8 13 30.27 1025 10 16 N/A

Powered by AerisWeather